Location: Columbia
(38.9520°N, 92.3340°W)
Time: 16:10:36
(UTC-06:00)

Daily predictions for brighter satellites

Satellite Brightness Start Highest point End
(mag) Time Altitude Azimuth Time Altitude Azimuth Time Altitude Azimuth
Meteor 1-18 Rocket 4.2 18:12:12 10° N 18:17:47 76° E 18:23:24 10° SSE
Cosmos 1954 Rocket 4.4 18:14:30 10° S 18:19:22 43° ESE 18:24:17 10° NNE
Cosmos 2322 Rocket 2.2 18:14:30 10° NNW 18:20:09 87° ENE 18:25:45 10° SSE
Meteor 1-28 Rocket 3.2 18:17:16 10° NNE 18:21:05 72° ESE 18:24:53 10° S
Tiangong 2 1.3 18:19:21 10° WNW 18:22:26 69° SSW 18:25:29 10° ESE
Meteor 1-20 Rocket 4.3 18:17:14 10° S 18:23:02 80° E 18:28:55 10° NNE
Cosmos 2151 Rocket 3.7 18:19:16 10° S 18:23:42 61° E 18:28:10 10° NNE
SJ-6B 3.6 18:20:17 10° SE 18:23:48 30° ENE 18:27:16 10° N
Okean 1 Rocket 4.2 18:21:21 10° SE 18:24:48 22° E 18:28:17 10° NE
TSX-5 3.3 18:23:55 10° SSW 18:27:03 56° ESE 18:30:12 10° NNE
FENGYUN 3A 4.5 18:23:09 10° SE 18:27:45 29° ENE 18:32:22 10° N
Cosmos 1745 Rocket 4.5 18:24:09 10° SSW 18:30:26 69° W 18:36:42 10° N
Gbstr 26 Del rocket 3.0 18:29:22 10° SSW 18:33:08 47° SE 18:36:44 10° ENE
Cosmos 2322 4.2 18:30:58 10° N 18:36:21 40° ENE 18:41:40 10° SE
Cosmos 1238 Rocket 3.0 18:35:27 10° NNE 18:38:03 27° E 18:40:40 10° SE
NOAA 12 4.1 18:33:25 10° SSE 18:38:41 70° ENE 18:44:00 10° N
GPS 2-04 Rocket1 4.2 18:39:47 10° SW 18:43:24 27° SSE 18:46:29 13° ESE
Cosmos 1025 Rocket 4.4 18:42:21 10° NNE 18:45:32 19° ENE 18:48:40 10° ESE
Meteor 1-13 Rocket 4.3 18:40:23 10° N 18:45:50 54° ENE 18:51:21 10° SSE
GEOS 3 Rocket 4.0 18:41:55 10° NE 18:46:57 45° ESE 18:51:58 10° SSW
METEOR-M 4.1 18:44:17 10° SSE 18:49:37 85° ENE 18:54:59 10° NNW
H-2A R/B 3.8 18:47:21 10° SE 18:50:22 24° ENE 18:53:24 10° NNE
Cosmos 1536 3.5 18:46:49 10° SSE 18:50:22 31° E 18:53:55 10° NNE
COSMOS 2428 3.6 18:46:41 10° N 18:51:34 29° ENE 18:55:38 13° ESE
Okean 1-7 Rocket 4.4 18:47:52 10° NNE 18:51:52 30° ENE 18:55:48 10° SE
Cosmos 1633 2.5 18:51:04 10° S 18:54:44 77° E 18:58:26 10° N
Meteor 2-4 Rocket 4.1 18:49:39 10° N 18:54:50 39° ENE 18:59:51 10° SE
Cosmos 2237 Rocket 4.1 18:53:17 10° NNE 18:55:01 11° NE 18:55:53 11° NE
Cosmos 1023 Rocket 4.4 18:50:35 10° S 18:55:38 73° ESE 19:00:45 10° NNE
Okean 1 3.9 18:52:10 10° NNW 18:56:11 61° W 19:00:11 10° S
Cosmos 1536 Rocket 3.9 18:55:55 10° NNW 19:00:23 71° W 19:04:50 10° S
Cosmos 1741 Rocket 4.2 18:57:50 10° S 19:02:50 49° ESE 19:07:52 10° NNE
Cosmos 2360 Rocket 2.1 19:05:17 10° NNW 19:10:58 87° ENE 19:16:38 10° SSE
Cosmos 2219 3.4 19:05:35 10° S 19:11:06 51° ESE 19:16:40 10° NNE
Cosmos 2219 Rocket 3.3 19:08:02 10° N 19:12:31 24° NE 19:13:35 22° ENE
Cosmos 1570 Rocket 4.0 19:14:28 10° N 19:19:39 58° ENE 19:24:15 13° SSE
Meteor 1-11 Rocket 3.9 19:15:02 10° SSW 19:20:48 81° W 19:26:45 10° N
BREEZE-M DEB (TANK) 2.1 19:19:09 10° SW 19:23:22 76° SE 19:23:46 59° ENE
Resurs 01 Rocket 1.5 19:21:33 10° SSE 19:25:57 81° ENE 19:30:22 10° N
Cosmos 1140 Rocket 4.0 19:21:11 10° SSW 19:26:13 58° WNW 19:31:19 10° N
Cosmos 1300 Rocket 4.4 19:23:10 10° SSW 19:27:27 52° W 19:31:48 10° N
DELTA 2 R/B (1) 4.0 19:23:01 10° W 19:28:32 57° SSW 19:31:31 26° SE
Abrixas rocket 2.3 19:26:21 10° SW 19:29:38 59° SE 19:29:38 59° SE
ATLAS CENTAUR R/B 2.9 19:27:27 10° SSW 19:30:46 26° SSE 19:30:46 26° SSE
BREEZE-M DEB (TANK) 4.0 19:28:44 10° NW 19:32:06 50° NE 19:35:01 31° E
Spot 1 4.0 19:31:45 47° E 19:32:10 49° ENE 19:36:09 10° N
Cosmos 614 Rocket 4.3 19:28:52 10° SSW 19:33:54 66° WNW 19:38:58 10° NNE
ALOS 2.7 19:30:18 10° S 19:34:54 61° W 19:39:33 10° NNW
Cosmos 2327 Rocket 4.4 19:31:51 10° S 19:38:01 75° E 19:44:21 10° N
Spot 2 Rocket 3.6 19:35:50 10° S 19:40:52 77° WSW 19:45:58 10° NNW
Helios 1A 2.9 19:40:56 60° E 19:41:06 61° ENE 19:45:13 10° N
Resurs 1-3 3.7 19:39:18 10° S 19:43:40 77° WSW 19:48:05 10° NNW
Cosmos 2333 Rocket 2.9 19:41:16 10° N 19:46:14 35° NE 19:46:14 35° NE
Cosmos 2208 Rocket 4.0 19:41:14 10° NNW 19:46:43 87° WSW 19:50:30 20° SSE
USA 229 DEB 3.8 19:45:04 10° NNW 19:52:10 63° NE 19:54:32 43° ESE
USA 229 3.8 19:45:10 10° NNW 19:52:16 63° NE 19:54:35 43° ESE
Helios 1B rocket 2.3 19:50:44 10° NNE 19:54:55 89° W 19:59:03 10° SSW
Envisat 3.8 19:58:42 37° NNE 19:58:42 37° NNE 20:02:06 10° N
Cosmos 2074 Rocket 4.2 19:51:17 10° SSW 19:57:30 71° W 20:03:48 10° N
Tiangong 2 4.0 19:57:18 10° WSW 19:58:29 12° SW 19:58:32 12° SW
Okean 2 4.0 19:55:09 10° N 19:58:13 48° N 19:58:13 48° N
Cosmos 2184 Rocket 4.2 19:54:15 10° SSW 20:00:33 71° W 20:06:49 10° N
Genesis I 3.8 19:59:30 10° NW 20:03:08 54° WSW 20:03:08 54° WSW
Hubble Space Telescope 3.4 20:06:28 10° SSW 20:06:47 11° SSW 20:06:47 11° SSW
BREEZE-M DEB (TANK) 3.1 20:14:07 10° WNW 20:17:18 71° SW 20:17:19 71° SSW
Nadezhda 3 Rocket 3.8 20:15:33 10° N 20:21:26 78° NE 20:21:26 78° NE
NOSS 3-1 (C) 4.3 20:17:07 10° NNW 20:24:22 50° NE 20:24:22 50° NE
Cosmos 2154 Rocket 4.0 20:23:09 10° S 20:29:30 80° W 20:35:53 10° N
Cosmos 2285 Rocket 4.4 20:24:30 10° NNW 20:30:51 62° WSW 20:32:47 43° SSW
COSMOS 2428 3.9 20:30:39 10° NW 20:35:55 39° WSW 20:37:45 31° SW
Cosmos 2237 Rocket 3.3 20:34:25 10° NNW 20:37:44 36° N 20:37:44 36° N
Cosmos 2219 Rocket 3.3 20:51:19 10° NW 20:55:22 40° WNW 20:55:22 40° WNW
SL-16 R/B 4.5 21:08:06 10° NNW 21:09:14 16° NNW 21:09:14 16° NNW
Cosmos 2333 Rocket 4.3 21:25:40 10° NW 21:28:17 23° WNW 21:28:17 23° WNW
